Year,Month,Day,Hour,Minute,Value (Times are PST for temperature in C)
2015,04,22,00,00,7.50
2015,04,22,00,01,7.50
2015,04,22,00,02,7.50
2015,04,22,00,03,7.50
2015,04,22,00,04,7.50
2015,04,22,00,05,7.50
2015,04,22,00,06,7.50
2015,04,22,00,07,7.40
2015,04,22,00,08,7.40
2015,04,22,00,09,7.40
2015,04,22,00,10,7.40
2015,04,22,00,11,7.40
2015,04,22,00,12,7.40
2015,04,22,00,13,7.40
2015,04,22,00,14,7.40
2015,04,22,00,15,7.40
2015,04,22,00,16,7.40
2015,04,22,00,17,7.40
2015,04,22,00,18,7.40
2015,04,22,00,19,7.40
2015,04,22,00,20,7.40
2015,04,22,00,21,7.40
2015,04,22,00,22,7.40
2015,04,22,00,23,7.30
2015,04,22,00,24,7.30
2015,04,22,00,25,7.30
2015,04,22,00,26,7.30
2015,04,22,00,27,7.30
2015,04,22,00,28,7.30
2015,04,22,00,29,7.30
2015,04,22,00,30,7.30
2015,04,22,00,31,7.20
2015,04,22,00,32,7.20
2015,04,22,00,33,7.20
2015,04,22,00,34,7.20
2015,04,22,00,35,7.20
2015,04,22,00,36,7.20
2015,04,22,00,37,7.20
2015,04,22,00,38,7.20
2015,04,22,00,39,7.20
2015,04,22,00,40,7.20
2015,04,22,00,41,7.20
2015,04,22,00,42,7.20
2015,04,22,00,43,7.20
2015,04,22,00,44,7.20
2015,04,22,00,45,7.10
2015,04,22,00,46,7.10
2015,04,22,00,47,7.10
2015,04,22,00,48,7.10
2015,04,22,00,49,7.10
2015,04,22,00,50,7.10
2015,04,22,00,51,7.10
2015,04,22,00,52,7.20
2015,04,22,00,53,7.20
2015,04,22,00,54,7.20
2015,04,22,00,55,7.20
2015,04,22,00,56,7.20
2015,04,22,00,57,7.20
2015,04,22,00,58,7.20
2015,04,22,00,59,7.20
2015,04,22,01,00,7.20
2015,04,22,01,01,7.20
2015,04,22,01,02,7.20
2015,04,22,01,03,7.20
2015,04,22,01,04,7.20
2015,04,22,01,05,7.20
2015,04,22,01,06,7.20
2015,04,22,01,07,7.20
2015,04,22,01,08,7.20
2015,04,22,01,09,7.10
2015,04,22,01,10,7.10
2015,04,22,01,11,7.10
2015,04,22,01,12,7.10
2015,04,22,01,13,7.10
2015,04,22,01,14,7.10
2015,04,22,01,15,7.10
2015,04,22,01,16,7.10
2015,04,22,01,17,7.10
2015,04,22,01,18,7.20
2015,04,22,01,19,7.20
2015,04,22,01,20,7.20
2015,04,22,01,21,7.20
2015,04,22,01,22,7.20
2015,04,22,01,23,7.20
2015,04,22,01,24,7.20
2015,04,22,01,25,7.20
2015,04,22,01,26,7.20
2015,04,22,01,27,7.20
2015,04,22,01,28,7.20
2015,04,22,01,29,7.20
2015,04,22,01,30,7.20
2015,04,22,01,31,7.20
2015,04,22,01,32,7.30
2015,04,22,01,33,7.30
2015,04,22,01,34,7.30
2015,04,22,01,35,7.30
2015,04,22,01,36,7.30
2015,04,22,01,37,7.30
2015,04,22,01,38,7.30
2015,04,22,01,39,7.30
2015,04,22,01,40,7.30
2015,04,22,01,41,7.30
2015,04,22,01,42,7.30
2015,04,22,01,43,7.30
2015,04,22,01,44,7.30
2015,04,22,01,45,7.30
2015,04,22,01,46,7.30
2015,04,22,01,47,7.30
2015,04,22,01,48,7.30
2015,04,22,01,49,7.30
2015,04,22,01,50,7.30
2015,04,22,01,51,7.20
2015,04,22,01,52,7.20
2015,04,22,01,53,7.20
2015,04,22,01,54,7.20
2015,04,22,01,55,7.20
2015,04,22,01,56,7.20
2015,04,22,01,57,7.20
2015,04,22,01,58,7.20
2015,04,22,01,59,7.20
2015,04,22,02,00,7.10
2015,04,22,02,01,7.10
2015,04,22,02,02,7.10
2015,04,22,02,03,7.10
2015,04,22,02,04,7.00
2015,04,22,02,05,7.00
2015,04,22,02,06,6.90
2015,04,22,02,07,6.90
2015,04,22,02,08,6.90
2015,04,22,02,09,6.80
2015,04,22,02,10,6.80
2015,04,22,02,11,6.80
2015,04,22,02,12,6.80
2015,04,22,02,13,6.80
2015,04,22,02,14,6.80
2015,04,22,02,15,6.80
2015,04,22,02,16,6.80
2015,04,22,02,17,6.80
2015,04,22,02,18,6.80
2015,04,22,02,19,6.80
2015,04,22,02,20,6.80
2015,04,22,02,21,6.80
2015,04,22,02,22,6.80
2015,04,22,02,23,6.70
2015,04,22,02,24,6.70
2015,04,22,02,25,6.70
2015,04,22,02,26,6.70
2015,04,22,02,27,6.70
2015,04,22,02,28,6.70
2015,04,22,02,29,6.70
2015,04,22,02,30,6.70
2015,04,22,02,31,6.70
2015,04,22,02,32,6.70
2015,04,22,02,33,6.70
2015,04,22,02,34,6.70
2015,04,22,02,35,6.70
2015,04,22,02,36,6.70
2015,04,22,02,37,6.70
2015,04,22,02,38,6.70
2015,04,22,02,39,6.60
2015,04,22,02,40,6.60
2015,04,22,02,41,6.60
2015,04,22,02,42,6.60
2015,04,22,02,43,6.60
2015,04,22,02,44,6.60
2015,04,22,02,45,6.60
2015,04,22,02,46,6.60
2015,04,22,02,47,6.60
2015,04,22,02,48,6.60
2015,04,22,02,49,6.60
2015,04,22,02,50,6.60
2015,04,22,02,51,6.70
2015,04,22,02,52,6.70
2015,04,22,02,53,6.70
2015,04,22,02,54,6.70
2015,04,22,02,55,6.70
2015,04,22,02,56,6.70
2015,04,22,02,57,6.70
2015,04,22,02,58,6.80
2015,04,22,02,59,6.80
2015,04,22,03,00,6.80
2015,04,22,03,01,6.80
2015,04,22,03,02,6.80
2015,04,22,03,03,6.90
2015,04,22,03,04,6.90
2015,04,22,03,05,6.90
2015,04,22,03,06,6.90
2015,04,22,03,07,6.90
2015,04,22,03,08,6.90
2015,04,22,03,09,6.90
2015,04,22,03,10,7.00
2015,04,22,03,11,7.00
2015,04,22,03,12,6.90
2015,04,22,03,13,7.00
2015,04,22,03,14,6.90
2015,04,22,03,15,6.90
2015,04,22,03,16,6.90
2015,04,22,03,17,6.90
2015,04,22,03,18,6.90
2015,04,22,03,19,6.90
2015,04,22,03,20,6.80
2015,04,22,03,21,6.80
2015,04,22,03,22,6.80
2015,04,22,03,23,6.80
2015,04,22,03,24,6.70
2015,04,22,03,25,6.70
2015,04,22,03,26,6.70
2015,04,22,03,27,6.70
2015,04,22,03,28,6.60
2015,04,22,03,29,6.60
2015,04,22,03,30,6.50
2015,04,22,03,31,6.50
2015,04,22,03,32,6.40
2015,04,22,03,33,6.40
2015,04,22,03,34,6.30
2015,04,22,03,35,6.30
2015,04,22,03,36,6.20
2015,04,22,03,37,6.10
2015,04,22,03,38,6.10
2015,04,22,03,39,6.00
2015,04,22,03,40,5.90
2015,04,22,03,41,5.90
2015,04,22,03,42,5.80
2015,04,22,03,43,5.70
2015,04,22,03,44,5.70
2015,04,22,03,45,5.60
2015,04,22,03,46,5.50
2015,04,22,03,47,5.40
2015,04,22,03,48,5.30
2015,04,22,03,49,5.20
2015,04,22,03,50,5.10
2015,04,22,03,51,5.10
2015,04,22,03,52,5.00
2015,04,22,03,53,4.90
2015,04,22,03,54,4.80
2015,04,22,03,55,4.80
2015,04,22,03,56,4.70
2015,04,22,03,57,4.60
2015,04,22,03,58,4.60
2015,04,22,03,59,4.50
2015,04,22,04,00,4.50
2015,04,22,04,01,4.40
2015,04,22,04,02,4.40
2015,04,22,04,03,4.40
2015,04,22,04,04,4.40
2015,04,22,04,05,4.40
2015,04,22,04,06,4.40
2015,04,22,04,07,4.40
2015,04,22,04,08,4.30
2015,04,22,04,09,4.30
2015,04,22,04,10,4.30
2015,04,22,04,11,4.30
2015,04,22,04,12,4.30
2015,04,22,04,13,4.30
2015,04,22,04,14,4.30
2015,04,22,04,15,4.30
2015,04,22,04,16,4.30
2015,04,22,04,17,4.20
2015,04,22,04,18,4.20
2015,04,22,04,19,4.20
2015,04,22,04,20,4.20
2015,04,22,04,21,4.20
2015,04,22,04,22,4.20
2015,04,22,04,23,4.20
2015,04,22,04,24,4.20
2015,04,22,04,25,4.30
2015,04,22,04,26,4.40
2015,04,22,04,27,4.40
2015,04,22,04,28,4.50
2015,04,22,04,29,4.50
2015,04,22,04,30,4.60
2015,04,22,04,31,4.60
2015,04,22,04,32,4.60
2015,04,22,04,33,4.70
2015,04,22,04,34,4.70
2015,04,22,04,35,4.80
2015,04,22,04,36,4.80
2015,04,22,04,37,4.90
2015,04,22,04,38,5.00
2015,04,22,04,39,5.10
2015,04,22,04,40,5.20
2015,04,22,04,41,5.30
2015,04,22,04,42,5.30
2015,04,22,04,43,5.40
2015,04,22,04,44,5.40
2015,04,22,04,45,5.60
2015,04,22,04,46,5.70
2015,04,22,04,47,5.80
2015,04,22,04,48,5.90
2015,04,22,04,49,5.90
2015,04,22,04,50,6.00
2015,04,22,04,51,6.10
2015,04,22,04,52,6.10
2015,04,22,04,53,6.20
2015,04,22,04,54,6.20
2015,04,22,04,55,6.20
2015,04,22,04,56,6.20
2015,04,22,04,57,6.20
2015,04,22,04,58,6.20
2015,04,22,04,59,6.20
2015,04,22,05,00,6.20
2015,04,22,05,01,6.20
2015,04,22,05,02,6.20
2015,04,22,05,03,6.20
2015,04,22,05,04,6.20
2015,04,22,05,05,6.20
2015,04,22,05,06,6.20
2015,04,22,05,07,6.20
2015,04,22,05,08,6.20
2015,04,22,05,09,6.20
2015,04,22,05,10,6.20
2015,04,22,05,11,6.20
2015,04,22,05,12,6.20
2015,04,22,05,13,6.20
2015,04,22,05,14,6.20
2015,04,22,05,15,6.20
2015,04,22,05,16,6.20
2015,04,22,05,17,6.20
2015,04,22,05,18,6.20
2015,04,22,05,19,6.20
2015,04,22,05,20,6.20
2015,04,22,05,21,6.20
2015,04,22,05,22,6.20
2015,04,22,05,23,6.20
2015,04,22,05,24,6.20
2015,04,22,05,25,6.20
2015,04,22,05,26,6.20
2015,04,22,05,27,6.20
2015,04,22,05,28,6.20
2015,04,22,05,29,6.10
2015,04,22,05,30,6.10
2015,04,22,05,31,6.00
2015,04,22,05,32,6.00
2015,04,22,05,33,6.00
2015,04,22,05,34,5.90
2015,04,22,05,35,5.90
2015,04,22,05,36,5.90
2015,04,22,05,37,5.90
2015,04,22,05,38,5.80
2015,04,22,05,39,5.80
2015,04,22,05,40,5.80
2015,04,22,05,41,5.80
2015,04,22,05,42,5.80
2015,04,22,05,43,5.80
2015,04,22,05,44,5.80
2015,04,22,05,45,5.80
2015,04,22,05,46,5.80
2015,04,22,05,47,5.80
2015,04,22,05,48,5.80
2015,04,22,05,49,5.90
2015,04,22,05,50,5.90
2015,04,22,05,51,5.90
2015,04,22,05,52,6.00
2015,04,22,05,53,6.00
2015,04,22,05,54,6.00
2015,04,22,05,55,6.00
2015,04,22,05,56,6.10
2015,04,22,05,57,6.10
2015,04,22,05,58,6.20
2015,04,22,05,59,6.20
2015,04,22,06,00,6.20
2015,04,22,06,01,6.20
2015,04,22,06,02,6.20
2015,04,22,06,03,6.20
2015,04,22,06,04,6.30
2015,04,22,06,05,6.30
2015,04,22,06,06,6.30
2015,04,22,06,07,6.30
2015,04,22,06,08,6.20
2015,04,22,06,09,6.20
2015,04,22,06,10,6.20
2015,04,22,06,11,6.20
2015,04,22,06,12,6.20
2015,04,22,06,13,6.20
2015,04,22,06,14,6.10
2015,04,22,06,15,6.10
2015,04,22,06,16,6.10
2015,04,22,06,17,6.10
2015,04,22,06,18,6.00
2015,04,22,06,19,6.00
2015,04,22,06,20,6.00
2015,04,22,06,21,6.00
2015,04,22,06,22,5.90
2015,04,22,06,23,5.90
2015,04,22,06,24,5.90
2015,04,22,06,25,5.90
2015,04,22,06,26,5.80
2015,04,22,06,27,5.80
2015,04,22,06,28,5.80
2015,04,22,06,29,5.70
2015,04,22,06,30,5.70
2015,04,22,06,31,5.60
2015,04,22,06,32,5.50
2015,04,22,06,33,5.50
2015,04,22,06,34,5.40
2015,04,22,06,35,5.30
2015,04,22,06,36,5.20
2015,04,22,06,37,5.20
2015,04,22,06,38,5.10
2015,04,22,06,39,5.00
2015,04,22,06,40,4.90
2015,04,22,06,41,4.80
2015,04,22,06,42,4.70
2015,04,22,06,43,4.70
2015,04,22,06,44,4.60
2015,04,22,06,45,4.60
2015,04,22,06,46,4.60
2015,04,22,06,47,4.60
2015,04,22,06,48,4.60
2015,04,22,06,49,4.60
2015,04,22,06,50,4.40
2015,04,22,06,51,4.40
2015,04,22,06,52,4.40
2015,04,22,06,53,4.30
2015,04,22,06,54,4.30
2015,04,22,06,55,4.30
2015,04,22,06,56,4.30
2015,04,22,06,57,4.30
2015,04,22,06,58,4.30
2015,04,22,06,59,4.30
2015,04,22,07,00,4.30
2015,04,22,07,01,4.30
2015,04,22,07,02,4.40
2015,04,22,07,03,4.40
2015,04,22,07,04,4.50
2015,04,22,07,05,4.60
2015,04,22,07,06,4.70
2015,04,22,07,07,4.80
2015,04,22,07,08,4.80
2015,04,22,07,09,4.90
2015,04,22,07,10,5.00
2015,04,22,07,11,5.00
2015,04,22,07,12,5.10
2015,04,22,07,13,5.10
2015,04,22,07,14,5.20
2015,04,22,07,15,5.20
2015,04,22,07,16,5.30
2015,04,22,07,17,5.30
2015,04,22,07,18,5.30
2015,04,22,07,19,5.40
2015,04,22,07,20,5.40
2015,04,22,07,21,5.40
2015,04,22,07,22,5.50
2015,04,22,07,23,5.50
2015,04,22,07,24,5.60
2015,04,22,07,25,5.70
2015,04,22,07,26,5.70
2015,04,22,07,27,5.80
2015,04,22,07,28,5.80
2015,04,22,07,29,5.80
2015,04,22,07,30,5.90
2015,04,22,07,31,6.00
2015,04,22,07,32,6.00
2015,04,22,07,33,6.10
2015,04,22,07,34,6.10
2015,04,22,07,35,6.20
2015,04,22,07,36,6.20
2015,04,22,07,37,6.30
2015,04,22,07,38,6.30
2015,04,22,07,39,6.40
2015,04,22,07,40,6.40
2015,04,22,07,41,6.50
2015,04,22,07,42,6.60
2015,04,22,07,43,6.60
2015,04,22,07,44,6.70
2015,04,22,07,45,6.70
2015,04,22,07,46,6.80
2015,04,22,07,47,6.80
2015,04,22,07,48,6.80
2015,04,22,07,49,6.90
2015,04,22,07,50,6.90
2015,04,22,07,51,7.00
2015,04,22,07,52,7.10
2015,04,22,07,53,7.10
2015,04,22,07,54,7.20
2015,04,22,07,55,7.30
2015,04,22,07,56,7.40
2015,04,22,07,57,7.50
2015,04,22,07,58,7.50
2015,04,22,07,59,7.60
2015,04,22,08,00,7.70
2015,04,22,08,01,7.70
2015,04,22,08,02,7.80
2015,04,22,08,03,7.80
2015,04,22,08,04,7.90
2015,04,22,08,05,7.90
2015,04,22,08,06,7.90
2015,04,22,08,07,7.90
2015,04,22,08,08,7.90
2015,04,22,08,09,8.00
2015,04,22,08,10,7.90
2015,04,22,08,11,7.90
2015,04,22,08,12,7.90
2015,04,22,08,13,7.90
2015,04,22,08,14,7.90
2015,04,22,08,15,7.90
2015,04,22,08,16,7.90
2015,04,22,08,17,7.90
2015,04,22,08,18,8.00
2015,04,22,08,19,8.00
2015,04,22,08,20,8.00
2015,04,22,08,21,8.00
2015,04,22,08,22,8.00
2015,04,22,08,23,8.10
2015,04,22,08,24,8.10
2015,04,22,08,25,8.10
2015,04,22,08,26,8.20
2015,04,22,08,27,8.20
2015,04,22,08,28,8.30
2015,04,22,08,29,8.30
2015,04,22,08,30,8.30
2015,04,22,08,31,8.30
2015,04,22,08,32,8.30
2015,04,22,08,33,8.40
2015,04,22,08,34,8.40
2015,04,22,08,35,8.40
2015,04,22,08,36,8.50
2015,04,22,08,37,8.50
2015,04,22,08,38,8.60
2015,04,22,08,39,8.60
2015,04,22,08,40,8.60
2015,04,22,08,41,8.60
2015,04,22,08,42,8.70
2015,04,22,08,43,8.80
2015,04,22,08,44,8.80
2015,04,22,08,45,8.90
2015,04,22,08,46,8.90
2015,04,22,08,47,9.00
2015,04,22,08,48,9.00
2015,04,22,08,49,9.10
2015,04,22,08,50,9.10
2015,04,22,08,51,9.20
2015,04,22,08,52,9.20
2015,04,22,08,53,9.20
2015,04,22,08,54,9.20
2015,04,22,08,55,9.20
2015,04,22,08,56,9.20
2015,04,22,08,57,9.30
2015,04,22,08,58,9.30
2015,04,22,08,59,9.30
2015,04,22,09,00,9.30
2015,04,22,09,01,9.30
2015,04,22,09,02,9.40
2015,04,22,09,03,9.40
2015,04,22,09,04,9.50
2015,04,22,09,05,9.60
2015,04,22,09,06,9.70
2015,04,22,09,07,9.70
2015,04,22,09,08,9.70
2015,04,22,09,09,9.70
2015,04,22,09,10,9.70
2015,04,22,09,11,9.70
2015,04,22,09,12,9.70
2015,04,22,09,13,9.70
2015,04,22,09,14,9.70
2015,04,22,09,15,9.70
2015,04,22,09,16,9.70
2015,04,22,09,17,9.70
2015,04,22,09,18,9.70
2015,04,22,09,19,9.80
2015,04,22,09,20,9.80
2015,04,22,09,21,9.80
2015,04,22,09,22,9.80
2015,04,22,09,23,9.90
2015,04,22,09,24,10.00
2015,04,22,09,25,10.00
2015,04,22,09,26,10.00
2015,04,22,09,27,10.10
2015,04,22,09,28,10.10
2015,04,22,09,29,10.20
2015,04,22,09,30,10.30
2015,04,22,09,31,10.30
2015,04,22,09,32,10.40
2015,04,22,09,33,10.40
2015,04,22,09,34,10.50
2015,04,22,09,35,10.50
2015,04,22,09,36,10.60
2015,04,22,09,37,10.60
2015,04,22,09,38,10.60
2015,04,22,09,39,10.60
2015,04,22,09,40,10.60
2015,04,22,09,41,10.60
2015,04,22,09,42,10.60
2015,04,22,09,43,10.60
2015,04,22,09,44,10.60
2015,04,22,09,45,10.60
2015,04,22,09,46,10.70
2015,04,22,09,47,10.70
2015,04,22,09,48,10.80
2015,04,22,09,49,10.80
2015,04,22,09,50,10.80
2015,04,22,09,51,10.80
2015,04,22,09,52,10.80
2015,04,22,09,53,10.90
2015,04,22,09,54,10.90
2015,04,22,09,55,11.00
2015,04,22,09,56,11.10
2015,04,22,09,57,11.10
2015,04,22,09,58,11.10
2015,04,22,09,59,11.10
2015,04,22,10,00,11.10
2015,04,22,10,01,11.10
2015,04,22,10,02,11.10
2015,04,22,10,03,11.10
2015,04,22,10,04,11.10
2015,04,22,10,05,11.00
2015,04,22,10,06,11.10
2015,04,22,10,07,11.10
2015,04,22,10,08,11.10
2015,04,22,10,09,11.20
2015,04,22,10,10,11.30
2015,04,22,10,11,11.40
2015,04,22,10,12,11.50
2015,04,22,10,13,11.60
2015,04,22,10,14,11.50
2015,04,22,10,15,11.40
2015,04,22,10,16,11.40
2015,04,22,10,17,11.30
2015,04,22,10,18,11.30
2015,04,22,10,19,11.30
2015,04,22,10,20,11.30
2015,04,22,10,21,11.40
2015,04,22,10,22,11.40
2015,04,22,10,23,11.50
2015,04,22,10,24,11.50
2015,04,22,10,25,11.50
2015,04,22,10,26,11.60
2015,04,22,10,27,11.50
2015,04,22,10,28,11.50
2015,04,22,10,29,11.50
2015,04,22,10,30,11.40
2015,04,22,10,31,11.40
2015,04,22,10,32,11.40
2015,04,22,10,33,11.40
2015,04,22,10,34,11.40
2015,04,22,10,35,11.50
2015,04,22,10,36,11.40
2015,04,22,10,37,11.40
2015,04,22,10,38,11.30
2015,04,22,10,39,11.30
2015,04,22,10,40,11.20
2015,04,22,10,41,11.20
2015,04,22,10,42,11.20
2015,04,22,10,43,11.10
2015,04,22,10,44,11.10
2015,04,22,10,45,11.00
2015,04,22,10,46,11.00
2015,04,22,10,47,11.10
2015,04,22,10,48,11.10
2015,04,22,10,49,11.20
2015,04,22,10,50,11.20
2015,04,22,10,51,11.20
2015,04,22,10,52,11.30
2015,04,22,10,53,11.30
2015,04,22,10,54,11.30
2015,04,22,10,55,11.30
2015,04,22,10,56,11.20
2015,04,22,10,57,11.20
2015,04,22,10,58,11.10
2015,04,22,10,59,11.20
2015,04,22,11,00,11.20
2015,04,22,11,01,11.30
2015,04,22,11,02,11.30
2015,04,22,11,03,11.30
2015,04,22,11,04,11.40
2015,04,22,11,05,11.40
2015,04,22,11,06,11.40
2015,04,22,11,07,11.40
2015,04,22,11,08,11.40
2015,04,22,11,09,11.40
2015,04,22,11,10,11.50
2015,04,22,11,11,11.60
2015,04,22,11,12,11.70
2015,04,22,11,13,11.80
2015,04,22,11,14,11.90
2015,04,22,11,15,11.90
2015,04,22,11,16,11.90
2015,04,22,11,17,11.80
2015,04,22,11,18,11.70
2015,04,22,11,19,11.60
2015,04,22,11,20,11.50
2015,04,22,11,21,11.50
2015,04,22,11,22,11.40
2015,04,22,11,23,11.40
2015,04,22,11,24,11.40
2015,04,22,11,25,11.40
2015,04,22,11,26,11.30
2015,04,22,11,27,11.30
2015,04,22,11,28,11.30
2015,04,22,11,29,11.20
2015,04,22,11,30,11.20
2015,04,22,11,31,11.20
2015,04,22,11,32,11.20
2015,04,22,11,33,11.30
2015,04,22,11,34,11.30
2015,04,22,11,35,11.40
2015,04,22,11,36,11.50
2015,04,22,11,37,11.50
2015,04,22,11,38,11.60
2015,04,22,11,39,11.70
2015,04,22,11,40,11.80
2015,04,22,11,41,11.90
2015,04,22,11,42,11.90
2015,04,22,11,43,11.90
2015,04,22,11,44,11.90
2015,04,22,11,45,11.80
2015,04,22,11,46,11.70
2015,04,22,11,47,11.70
2015,04,22,11,48,11.70
2015,04,22,11,49,11.70
2015,04,22,11,50,11.80
2015,04,22,11,51,11.80
2015,04,22,11,52,11.90
2015,04,22,11,53,11.90
2015,04,22,11,54,12.00
2015,04,22,11,55,12.10
2015,04,22,11,56,12.10
2015,04,22,11,57,12.10
2015,04,22,11,58,12.10
2015,04,22,11,59,12.20
2015,04,22,12,00,12.30
2015,04,22,12,01,12.30
2015,04,22,12,02,12.30
2015,04,22,12,03,12.30
2015,04,22,12,04,12.20
2015,04,22,12,05,12.20
2015,04,22,12,06,12.10
2015,04,22,12,07,12.10
2015,04,22,12,08,12.10
2015,04,22,12,09,12.10
2015,04,22,12,10,12.10
2015,04,22,12,11,12.20
2015,04,22,12,12,12.20
2015,04,22,12,13,12.30
2015,04,22,12,14,12.30
2015,04,22,12,15,12.40
2015,04,22,12,16,12.50
2015,04,22,12,17,12.60
2015,04,22,12,18,12.60
2015,04,22,12,19,12.70
2015,04,22,12,20,12.80
2015,04,22,12,21,12.80
2015,04,22,12,22,12.80
2015,04,22,12,23,12.80
2015,04,22,12,24,12.70
2015,04,22,12,25,12.70
2015,04,22,12,26,12.70
2015,04,22,12,27,12.70
2015,04,22,12,28,12.60
2015,04,22,12,29,12.60
2015,04,22,12,30,12.60
2015,04,22,12,31,12.60
2015,04,22,12,32,12.70
2015,04,22,12,33,12.70
2015,04,22,12,34,12.80
2015,04,22,12,35,12.80
2015,04,22,12,36,12.80
2015,04,22,12,37,12.80
2015,04,22,12,38,12.70
2015,04,22,12,39,12.80
2015,04,22,12,40,12.70
2015,04,22,12,41,12.60
2015,04,22,12,42,12.50
2015,04,22,12,43,12.40
2015,04,22,12,44,12.30
2015,04,22,12,45,12.10
2015,04,22,12,46,12.00
2015,04,22,12,47,11.90
2015,04,22,12,48,11.80
2015,04,22,12,49,11.80
2015,04,22,12,50,11.70
2015,04,22,12,51,11.80
2015,04,22,12,52,11.70
2015,04,22,12,53,11.70
2015,04,22,12,54,11.70
2015,04,22,12,55,11.70
2015,04,22,12,56,11.80
2015,04,22,12,57,11.80
2015,04,22,12,58,11.90
2015,04,22,12,59,11.90
2015,04,22,13,00,12.00
2015,04,22,13,01,12.00
2015,04,22,13,02,12.00
2015,04,22,13,03,12.00
2015,04,22,13,04,12.10
2015,04,22,13,05,12.10
2015,04,22,13,06,12.10
2015,04,22,13,07,12.20
2015,04,22,13,08,12.30
2015,04,22,13,09,12.40
2015,04,22,13,10,12.50
2015,04,22,13,11,12.50
2015,04,22,13,12,12.60
2015,04,22,13,13,12.60
2015,04,22,13,14,12.50
2015,04,22,13,15,12.40
2015,04,22,13,16,12.30
2015,04,22,13,17,12.20
2015,04,22,13,18,12.20
2015,04,22,13,19,12.20
2015,04,22,13,20,12.30
2015,04,22,13,21,12.30
2015,04,22,13,22,12.20
2015,04,22,13,23,12.10
2015,04,22,13,24,12.10
2015,04,22,13,25,12.00
2015,04,22,13,26,11.90
2015,04,22,13,27,11.80
2015,04,22,13,28,11.70
2015,04,22,13,29,11.60
2015,04,22,13,30,11.60
2015,04,22,13,31,11.60
2015,04,22,13,32,11.60
2015,04,22,13,33,11.60
2015,04,22,13,34,11.60
2015,04,22,13,35,11.70
2015,04,22,13,36,11.80
2015,04,22,13,37,11.90
2015,04,22,13,38,12.00
2015,04,22,13,39,12.10
2015,04,22,13,40,12.10
2015,04,22,13,41,12.20
2015,04,22,13,42,12.20
2015,04,22,13,43,12.20
2015,04,22,13,44,12.30
2015,04,22,13,45,12.30
2015,04,22,13,46,12.40
2015,04,22,13,47,12.40
2015,04,22,13,48,12.40
2015,04,22,13,49,12.50
2015,04,22,13,50,12.60
2015,04,22,13,51,12.70
2015,04,22,13,52,12.70
2015,04,22,13,53,12.60
2015,04,22,13,54,12.50
2015,04,22,13,55,12.40
2015,04,22,13,56,12.50
2015,04,22,13,57,12.50
2015,04,22,13,58,12.60
2015,04,22,13,59,12.70
2015,04,22,14,00,12.80
2015,04,22,14,01,12.90
2015,04,22,14,02,13.00
2015,04,22,14,03,13.00
2015,04,22,14,04,13.00
2015,04,22,14,05,12.90
2015,04,22,14,06,12.90
2015,04,22,14,07,12.80
2015,04,22,14,08,12.80
2015,04,22,14,09,12.80
2015,04,22,14,10,12.80
2015,04,22,14,11,12.80
2015,04,22,14,12,12.90
2015,04,22,14,13,12.90
2015,04,22,14,14,13.00
2015,04,22,14,15,13.00
2015,04,22,14,16,13.00
2015,04,22,14,17,13.00
2015,04,22,14,18,13.00
2015,04,22,14,19,13.00
2015,04,22,14,20,13.10
2015,04,22,14,21,13.10
2015,04,22,14,22,13.20
2015,04,22,14,23,13.10
2015,04,22,14,24,13.10
2015,04,22,14,25,13.10
2015,04,22,14,26,13.20
2015,04,22,14,27,13.20
2015,04,22,14,28,13.10
2015,04,22,14,29,13.00
2015,04,22,14,30,12.90
2015,04,22,14,31,12.90
2015,04,22,14,32,12.90
2015,04,22,14,33,12.90
2015,04,22,14,34,12.90
2015,04,22,14,35,12.90
2015,04,22,14,36,13.00
2015,04,22,14,37,13.00
2015,04,22,14,38,13.20
2015,04,22,14,39,13.30
2015,04,22,14,40,13.30
2015,04,22,14,41,13.20
2015,04,22,14,42,13.10
2015,04,22,14,43,13.10
2015,04,22,14,44,13.00
2015,04,22,14,45,12.90
2015,04,22,14,46,12.90
2015,04,22,14,47,12.80
2015,04,22,14,48,12.80
2015,04,22,14,49,12.80
2015,04,22,14,50,12.90
2015,04,22,14,51,12.90
2015,04,22,14,52,12.90
2015,04,22,14,53,12.90
2015,04,22,14,54,13.00
2015,04,22,14,55,13.00
2015,04,22,14,56,13.10
2015,04,22,14,57,13.10
2015,04,22,14,58,13.20
2015,04,22,14,59,13.10
2015,04,22,15,00,13.10
2015,04,22,15,01,13.10
2015,04,22,15,02,13.10
2015,04,22,15,03,13.20
2015,04,22,15,04,13.20
2015,04,22,15,05,13.30
2015,04,22,15,06,13.30
2015,04,22,15,07,13.40
2015,04,22,15,08,13.50
2015,04,22,15,09,13.40
2015,04,22,15,10,13.40
2015,04,22,15,11,13.50
2015,04,22,15,12,13.50
2015,04,22,15,13,13.40
2015,04,22,15,14,13.30
2015,04,22,15,15,13.20
2015,04,22,15,16,13.10
2015,04,22,15,17,13.00
2015,04,22,15,18,13.00
2015,04,22,15,19,12.90
2015,04,22,15,20,12.90
2015,04,22,15,21,12.90
2015,04,22,15,22,12.90
2015,04,22,15,23,13.00
2015,04,22,15,24,13.00
2015,04,22,15,25,13.00
2015,04,22,15,26,13.00
2015,04,22,15,27,12.90
2015,04,22,15,28,12.90
2015,04,22,15,29,12.80
2015,04,22,15,30,12.80
2015,04,22,15,31,12.80
2015,04,22,15,32,12.70
2015,04,22,15,33,12.70
2015,04,22,15,34,12.70
2015,04,22,15,35,12.80
2015,04,22,15,36,12.80
2015,04,22,15,37,12.90
2015,04,22,15,38,12.90
2015,04,22,15,39,12.90
2015,04,22,15,40,12.90
2015,04,22,15,41,12.80
2015,04,22,15,42,12.70
2015,04,22,15,43,12.70
2015,04,22,15,44,12.70
2015,04,22,15,45,12.70
2015,04,22,15,46,12.70
2015,04,22,15,47,12.70
2015,04,22,15,48,12.60
2015,04,22,15,49,12.60
2015,04,22,15,50,12.50
2015,04,22,15,51,12.50
2015,04,22,15,52,12.40
2015,04,22,15,53,12.30
2015,04,22,15,54,12.30
2015,04,22,15,55,12.30
2015,04,22,15,56,12.30
2015,04,22,15,57,12.30
2015,04,22,15,58,12.30
2015,04,22,15,59,12.30
2015,04,22,16,00,12.30
2015,04,22,16,01,12.30
2015,04,22,16,02,12.30
2015,04,22,16,03,12.30
2015,04,22,16,04,12.40
2015,04,22,16,05,12.40
2015,04,22,16,06,12.40
2015,04,22,16,07,12.40
2015,04,22,16,08,12.30
2015,04,22,16,09,12.40
2015,04,22,16,10,12.40
2015,04,22,16,11,12.40
2015,04,22,16,12,12.40
2015,04,22,16,13,12.40
2015,04,22,16,14,12.50
2015,04,22,16,15,12.50
2015,04,22,16,16,12.50
2015,04,22,16,17,12.60
2015,04,22,16,18,12.60
2015,04,22,16,19,12.70
2015,04,22,16,20,12.70
2015,04,22,16,21,12.80
2015,04,22,16,22,12.80
2015,04,22,16,23,12.80
2015,04,22,16,24,12.80
2015,04,22,16,25,12.80
2015,04,22,16,26,12.80
2015,04,22,16,27,12.80
2015,04,22,16,28,12.80
2015,04,22,16,29,12.70
2015,04,22,16,30,12.60
2015,04,22,16,31,12.60
2015,04,22,16,32,12.60
2015,04,22,16,33,12.60
2015,04,22,16,34,12.60
2015,04,22,16,35,12.50
2015,04,22,16,36,12.50
2015,04,22,16,37,12.40
2015,04,22,16,38,12.40
2015,04,22,16,39,12.40
2015,04,22,16,40,12.30
2015,04,22,16,41,12.30
2015,04,22,16,42,12.30
2015,04,22,16,43,12.20
2015,04,22,16,44,12.20
2015,04,22,16,45,12.10
2015,04,22,16,46,12.10
2015,04,22,16,47,12.10
2015,04,22,16,48,12.10
2015,04,22,16,49,12.20
2015,04,22,16,50,12.10
2015,04,22,16,51,12.10
2015,04,22,16,52,12.10
2015,04,22,16,53,12.10
2015,04,22,16,54,12.10
2015,04,22,16,55,12.10
2015,04,22,16,56,12.10
2015,04,22,16,57,12.10
2015,04,22,16,58,12.10
2015,04,22,16,59,12.10
2015,04,22,17,00,12.20
2015,04,22,17,01,12.20
2015,04,22,17,02,12.20
2015,04,22,17,03,12.20
2015,04,22,17,04,12.20
2015,04,22,17,05,12.20
2015,04,22,17,06,12.20
2015,04,22,17,07,12.20
2015,04,22,17,08,12.20
2015,04,22,17,09,12.20
2015,04,22,17,10,12.20
2015,04,22,17,11,12.30
2015,04,22,17,12,12.30
2015,04,22,17,13,12.30
2015,04,22,17,14,12.30
2015,04,22,17,15,12.30
2015,04,22,17,16,12.40
2015,04,22,17,17,12.40
2015,04,22,17,18,12.40
2015,04,22,17,19,12.40
2015,04,22,17,20,12.40
2015,04,22,17,21,12.40
2015,04,22,17,22,12.40
2015,04,22,17,23,12.50
2015,04,22,17,24,12.50
2015,04,22,17,25,12.50
2015,04,22,17,26,12.50
2015,04,22,17,27,12.60
2015,04,22,17,28,12.60
2015,04,22,17,29,12.60
2015,04,22,17,30,12.60
2015,04,22,17,31,12.60
2015,04,22,17,32,12.60
2015,04,22,17,33,12.60
2015,04,22,17,34,12.60
2015,04,22,17,35,12.50
2015,04,22,17,36,12.40
2015,04,22,17,37,12.40
2015,04,22,17,38,12.40
2015,04,22,17,39,12.40
2015,04,22,17,40,12.40
2015,04,22,17,41,12.40
2015,04,22,17,42,12.40
2015,04,22,17,43,12.40